TimeCDT,TemperatureF,Dew PointF,Humidity,Sea Level PressureIn,VisibilityMPH,Wind Direction,Wind SpeedMPH,Gust SpeedMPH,PrecipitationIn,Events,Conditions,WindDirDegrees,DateUTC
12:52 AM,72.0,63.0,73,29.87,10.0,Calm,Calm,-,N/A,,Clear,0,2013-08-20 05:52:00
1:52 AM,73.0,64.9,76,29.86,10.0,SE,3.5,-,N/A,,Clear,130,2013-08-20 06:52:00
2:52 AM,70.0,64.9,84,29.85,10.0,Calm,Calm,-,N/A,,Clear,0,2013-08-20 07:52:00
3:52 AM,72.0,66.0,81,29.83,10.0,Calm,Calm,-,N/A,,Clear,0,2013-08-20 08:52:00
4:52 AM,70.0,66.0,87,29.83,9.0,South,4.6,-,N/A,,Clear,190,2013-08-20 09:52:00
5:52 AM,69.1,66.0,90,29.83,9.0,SSW,5.8,-,N/A,,Clear,200,2013-08-20 10:52:00
6:52 AM,70.0,64.9,84,29.82,8.0,SSW,5.8,-,N/A,,Clear,210,2013-08-20 11:52:00
7:52 AM,71.1,66.0,84,29.83,9.0,SW,5.8,-,N/A,,Clear,220,2013-08-20 12:52:00
8:52 AM,75.0,66.0,73,29.83,10.0,South,4.6,-,N/A,,Clear,190,2013-08-20 13:52:00
9:52 AM,80.1,66.9,64,29.84,10.0,SSW,4.6,-,N/A,,Clear,210,2013-08-20 14:52:00
10:52 AM,84.9,66.9,55,29.83,10.0,SSW,6.9,-,N/A,,Clear,200,2013-08-20 15:52:00
11:52 AM,91.0,66.9,45,29.83,10.0,South,12.7,-,N/A,,Clear,180,2013-08-20 16:52:00
12:52 PM,93.0,64.0,38,29.81,10.0,South,16.1,-,N/A,,Clear,180,2013-08-20 17:52:00
1:52 PM,93.9,64.9,38,29.79,10.0,SSW,16.1,-,N/A,,Clear,200,2013-08-20 18:52:00
2:52 PM,93.9,64.0,37,29.79,10.0,South,15.0,-,N/A,,Clear,190,2013-08-20 19:52:00
3:52 PM,93.0,64.0,38,29.78,10.0,South,12.7,-,N/A,,Clear,180,2013-08-20 20:52:00
4:52 PM,93.0,64.9,39,29.77,10.0,SSE,10.4,-,N/A,,Clear,160,2013-08-20 21:52:00
5:52 PM,95.0,63.0,34,29.76,10.0,South,13.8,-,N/A,,Clear,180,2013-08-20 22:52:00
6:52 PM,93.0,66.9,42,29.75,10.0,SSE,11.5,-,N/A,,Clear,150,2013-08-20 23:52:00
7:52 PM,88.0,66.9,49,29.75,10.0,East,4.6,-,N/A,,Clear,100,2013-08-21 00:52:00
8:52 PM,82.9,70.0,65,29.78,10.0,SSE,4.6,-,0.00,Rain,Light Rain,150,2013-08-21 01:52:00
9:52 PM,82.0,66.9,60,29.80,10.0,South,8.1,-,0.00,,Partly Cloudy,190,2013-08-21 02:52:00
10:52 PM,82.0,64.9,56,29.80,10.0,SSW,9.2,-,N/A,,Clear,200,2013-08-21 03:52:00
11:52 PM,80.1,64.0,58,29.80,10.0,SSW,10.4,-,N/A,,Clear,210,2013-08-21 04:52:00